Weather History for Vinton, IA

Change the Weather History Date:

Monday, March 11, 2013

  Actual Average Record
Temperature  
Mean Temperature 28 °F -  
Max Temperature 32 °F 45 °F 71 °F (1972)
Min Temperature 25 °F 26 °F 2 °F (1969)
Degree Days  
Heating Degree Days 36    
Moisture  
Dew Point 25 °F    
Average Humidity 85    
Maximum Humidity 95    
Minimum Humidity 71    
Precipitation  
Precipitation 0.00 in - - ()
Sea Level Pressure  
Sea Level Pressure 29.74 in    
Wind  
Wind Speed 11 mph (NW)    
Max Wind Speed 22 mph    
Max Gust Speed 29 mph    
Visibility 8 miles    
Events Snow    
Averages and records for this station are not official NWS values.
T = Trace of Precipitation, MM = Missing Value Source: NWS Daily Summary

Daily Weather History Graph

Daily Weather History Graph

Search for Another Location

Airport:

Trip Planner

Search our weather history database for the weather conditions in past years. The results will help you decide how hot, cold, wet, or windy it might be!

Date:

Astronomy

Mar. 11, 2013 Rise Set
Actual Time 7:26 AM CDT 7:10 PM CDT
Civil Twilight 6:58 AM CDT 7:38 PM CDT
Nautical Twilight 6:26 AM CDT 8:10 PM CDT
Astronomical Twilight 5:53 AM CDT 8:43 PM CDT
Moon 6:59 AM CDT (3/11) 7:24 PM CDT (3/11)
Length of Visible Light 12h 39m
Length of Day
11h 43m
Waning Crescent, 0% of the Moon is Illuminated
Mar 11
Waning Crescent
Mar 11
New
Mar 19
First Quarter
Mar 27
Full
Apr 2
Last Quarter

Hourly Weather History & Observations

Time (CDT) Temp. Windchill Dew Point Humidity Pressure Visibility Wind Dir Wind Speed Gust Speed Precip Events Conditions
12:15 AM 32.4 °F 25.3 °F 31.1 °F 95% 29.68 in 5.0 mi North 8.1 mph - N/A   Overcast
12:35 AM 32.4 °F 26.0 °F 31.1 °F 95% 29.68 in 5.0 mi North 6.9 mph - N/A   Overcast
12:55 AM 32.4 °F 26.9 °F 30.9 °F 94% 29.68 in 7.0 mi North 5.8 mph - N/A   Overcast
1:15 AM 32.4 °F 26.0 °F 30.9 °F 94% 29.67 in 7.0 mi North 6.9 mph - N/A   Overcast
1:35 AM 32.4 °F 26.0 °F 31.1 °F 95% 29.67 in 7.0 mi NNW 6.9 mph - N/A   Overcast
1:55 AM 32.4 °F 24.6 °F 30.9 °F 94% 29.67 in 10.0 mi North 9.2 mph - N/A   Overcast
2:15 AM 32.4 °F 25.3 °F 30.9 °F 94% 29.68 in 5.0 mi NNW 8.1 mph - N/A   Overcast
2:35 AM 32.4 °F 26.9 °F 30.9 °F 94% 29.68 in 5.0 mi NNW 5.8 mph - N/A   Overcast
2:55 AM 32.4 °F 26.0 °F 30.9 °F 94% 29.67 in 4.0 mi North 6.9 mph - N/A   Overcast
3:15 AM 32.4 °F 25.3 °F 31.1 °F 95% 29.66 in 3.0 mi North 8.1 mph - N/A   Overcast
3:35 AM 32.4 °F 24.0 °F 31.1 °F 95% 29.65 in 3.0 mi North 10.4 mph - N/A   Overcast
3:55 AM 32.4 °F 24.6 °F 31.1 °F 95% 29.65 in 3.0 mi North 9.2 mph - N/A   Overcast
4:15 AM 32.4 °F 24.6 °F 31.1 °F 95% 29.65 in 3.0 mi NNW 9.2 mph - N/A   Overcast
4:35 AM 32.4 °F 24.6 °F 31.1 °F 95% 29.64 in 4.0 mi North 9.2 mph - N/A   Overcast
4:55 AM 30.6 °F 21.2 °F 28.8 °F 93% 29.64 in 5.0 mi North 11.5 mph - N/A   Overcast
5:15 AM 30.2 °F 20.8 °F 28.4 °F 93% 29.65 in 4.0 mi North 11.5 mph - N/A   Overcast
5:35 AM 30.2 °F 21.3 °F 28.4 °F 93% 29.66 in 3.0 mi NNW 10.4 mph 17.3 mph N/A Snow Light Snow
5:55 AM 30.2 °F 20.2 °F 28.2 °F 92% 29.66 in 2.0 mi North 12.7 mph - N/A Snow Light Snow
6:15 AM 30.2 °F 22.6 °F 28.2 °F 92% 29.66 in 3.0 mi North 8.1 mph 18.4 mph N/A Snow Light Snow
6:35 AM 30.2 °F 21.9 °F 28.2 °F 92% 29.68 in 4.0 mi North 9.2 mph - N/A Snow Light Snow
6:55 AM 30.2 °F 21.9 °F 28.0 °F 92% 29.68 in 5.0 mi NNW 9.2 mph - N/A   Overcast
7:15 AM 30.2 °F 21.9 °F 27.9 °F 91% 29.69 in 5.0 mi NNW 9.2 mph - N/A Snow Light Snow
7:35 AM 30.2 °F 21.3 °F 27.9 °F 91% 29.69 in 7.0 mi North 10.4 mph - N/A Snow Light Snow
7:55 AM 30.2 °F 21.3 °F 27.3 °F 89% 29.69 in 10.0 mi NNW 10.4 mph - N/A   Mostly Cloudy
8:15 AM 30.2 °F 21.9 °F 26.6 °F 86% 29.69 in 10.0 mi NNW 9.2 mph - N/A   Mostly Cloudy
8:35 AM 30.2 °F 21.3 °F 26.6 °F 86% 29.69 in 10.0 mi NNW 10.4 mph - N/A   Mostly Cloudy
8:55 AM 30.2 °F 20.8 °F 26.6 °F 86% 29.69 in 10.0 mi NNW 11.5 mph 18.4 mph N/A   Mostly Cloudy
9:15 AM 30.2 °F 20.2 °F 26.4 °F 86% 29.69 in 10.0 mi NNW 12.7 mph 19.6 mph N/A   Mostly Cloudy
9:35 AM 30.2 °F 20.2 °F 26.2 °F 85% 29.69 in 10.0 mi NNW 12.7 mph - N/A   Overcast
9:55 AM 30.2 °F 19.8 °F 26.2 °F 85% 29.69 in 10.0 mi NNW 13.8 mph - N/A   Overcast
10:15 AM 29.7 °F 19.6 °F 26.1 °F 86% 29.69 in 5.0 mi NW 12.7 mph 17.3 mph N/A   Overcast
10:35 AM 28.9 °F 18.6 °F 25.7 °F 88% 29.70 in 4.0 mi NNW 12.7 mph 20.7 mph N/A Snow Light Snow
10:55 AM 28.9 °F 17.3 °F 25.2 °F 86% 29.70 in 4.0 mi NNW 16.1 mph 27.6 mph N/A   Overcast
11:15 AM 30.2 °F 20.8 °F 25.9 °F 84% 29.70 in 5.0 mi NNW 11.5 mph 17.3 mph N/A   Mostly Cloudy
11:35 AM 30.2 °F 19.8 °F 26.1 °F 85% 29.70 in 3.0 mi NW 13.8 mph 21.9 mph N/A   Overcast
11:55 AM 29.5 °F 19.3 °F 24.8 °F 83% 29.71 in 5.0 mi NNW 12.7 mph 21.9 mph N/A   Mostly Cloudy
12:15 PM 30.2 °F 19.3 °F 25.2 °F 82% 29.71 in 10.0 mi NNW 15.0 mph 19.6 mph N/A   Mostly Cloudy
12:35 PM 29.3 °F 19.6 °F 24.3 °F 81% 29.72 in 10.0 mi NW 11.5 mph 17.3 mph N/A   Scattered Clouds
12:55 PM 28.9 °F 18.2 °F 23.9 °F 81% 29.72 in 10.0 mi NW 13.8 mph 18.4 mph N/A   Scattered Clouds
1:15 PM 28.9 °F 19.2 °F 23.9 °F 81% 29.72 in 7.0 mi NW 11.5 mph 16.1 mph N/A   Scattered Clouds
1:35 PM 29.7 °F 18.6 °F 24.6 °F 81% 29.72 in 7.0 mi NW 15.0 mph 19.6 mph N/A   Scattered Clouds
1:55 PM 28.9 °F 17.7 °F 23.9 °F 81% 29.73 in 10.0 mi NW 15.0 mph 19.6 mph N/A   Mostly Cloudy
2:15 PM 28.9 °F 16.9 °F 23.4 °F 80% 29.72 in 10.0 mi NW 17.3 mph 23.0 mph N/A   Mostly Cloudy
2:35 PM 28.2 °F 15.9 °F 23.2 °F 81% 29.72 in 10.0 mi NW 17.3 mph - N/A   Mostly Cloudy
2:55 PM 27.5 °F 16.3 °F 22.6 °F 82% 29.72 in 10.0 mi NW 13.8 mph 24.2 mph N/A   Mostly Cloudy
3:15 PM 28.6 °F 17.2 °F 23.2 °F 80% 29.73 in 10.0 mi NW 15.0 mph 20.7 mph N/A   Mostly Cloudy
3:35 PM 28.9 °F 18.6 °F 23.4 °F 80% 29.74 in 10.0 mi NW 12.7 mph 17.3 mph N/A   Mostly Cloudy
3:55 PM 28.6 °F 16.4 °F 23.4 °F 81% 29.74 in 10.0 mi WNW 17.3 mph 21.9 mph N/A   Mostly Cloudy
4:15 PM 27.5 °F 13.5 °F 22.6 °F 82% 29.75 in 10.0 mi WNW 21.9 mph 26.5 mph N/A   Overcast
4:35 PM 27.5 °F 15.0 °F 22.1 °F 80% 29.76 in 10.0 mi NW 17.3 mph 27.6 mph N/A   Overcast
4:55 PM 27.5 °F 13.9 °F 22.3 °F 81% 29.76 in 10.0 mi NW 20.7 mph 28.8 mph N/A   Overcast
5:15 PM 27.5 °F 13.9 °F 22.8 °F 83% 29.77 in 10.0 mi WNW 20.7 mph 25.3 mph N/A   Overcast
5:35 PM 27.5 °F 15.4 °F 22.8 °F 83% 29.78 in 10.0 mi WNW 16.1 mph 23.0 mph N/A   Overcast
5:55 PM 27.5 °F 15.9 °F 22.1 °F 80% 29.78 in 10.0 mi WNW 15.0 mph 25.3 mph N/A   Overcast
6:15 PM 27.5 °F 13.9 °F 22.1 °F 80% 29.79 in 10.0 mi WNW 20.7 mph 26.5 mph N/A   Overcast
6:35 PM 27.5 °F 15.0 °F 22.1 °F 80% 29.80 in 10.0 mi WNW 17.3 mph 25.3 mph N/A   Overcast
6:55 PM 27.5 °F 14.6 °F 21.9 °F 80% 29.81 in 10.0 mi WNW 18.4 mph 27.6 mph N/A   Overcast
7:15 PM 27.5 °F 14.2 °F 21.9 °F 80% 29.82 in 10.0 mi WNW 19.6 mph 23.0 mph N/A   Overcast
7:35 PM 27.5 °F 15.4 °F 21.9 °F 80% 29.82 in 10.0 mi WNW 16.1 mph 21.9 mph N/A   Overcast
7:55 PM 27.5 °F 15.4 °F 21.7 °F 79% 29.83 in 10.0 mi WNW 16.1 mph 21.9 mph N/A   Overcast
8:15 PM 27.5 °F 16.3 °F 21.9 °F 80% 29.84 in 10.0 mi NW 13.8 mph 20.7 mph N/A   Overcast
8:35 PM 27.5 °F 15.4 °F 21.6 °F 78% 29.84 in 10.0 mi WNW 16.1 mph 21.9 mph N/A   Mostly Cloudy
8:55 PM 27.5 °F 15.0 °F 21.6 °F 78% 29.85 in 10.0 mi WNW 17.3 mph 23.0 mph N/A   Scattered Clouds
9:15 PM 27.5 °F 15.0 °F 21.2 °F 77% 29.87 in 10.0 mi WNW 17.3 mph 24.2 mph N/A   Mostly Cloudy
9:35 PM 27.5 °F 15.0 °F 21.0 °F 77% 29.88 in 10.0 mi WNW 17.3 mph 26.5 mph N/A   Scattered Clouds
9:55 PM 27.5 °F 15.0 °F 21.2 °F 77% 29.88 in 10.0 mi WNW 17.3 mph 23.0 mph N/A   Scattered Clouds
10:15 PM 27.5 °F 16.3 °F 21.6 °F 78% 29.89 in 10.0 mi WNW 13.8 mph 20.7 mph N/A   Overcast
10:35 PM 27.5 °F 16.3 °F 21.6 °F 78% 29.89 in 10.0 mi WNW 13.8 mph 18.4 mph N/A   Mostly Cloudy
10:55 PM 25.9 °F 12.9 °F 18.7 °F 74% 29.89 in 10.0 mi WNW 17.3 mph 24.2 mph N/A   Clear
11:15 PM 25.2 °F 12.0 °F 17.8 °F 74% 29.90 in 10.0 mi WNW 17.3 mph 23.0 mph N/A   Clear
11:35 PM 25.2 °F 12.4 °F 17.1 °F 71% 29.90 in 10.0 mi NW 16.1 mph 23.0 mph N/A   Clear
11:55 PM 25.2 °F 13.3 °F 17.6 °F 73% 29.91 in 10.0 mi NW 13.8 mph - N/A   Clear